335P/Gibbs (2022)

Japanese version
Home page
Updated on May 13, 2024

---------------------------------------------------------------------

* Profile

* Orbital Elements

Epoch 2021 July 5.0 TT = JDT 2459400.5                                          
T 2022 Aug. 12.03694 TT                                 Rudenko                 
q   1.6246957            (2000.0)            P               Q                  
n   0.14564360     Peri.  162.27698     -0.68479603     -0.72610608             
a   3.5777373      Node   330.84833     +0.65228766     -0.57290982             
e   0.5458874      Incl.    7.29350     +0.32492338     -0.38018982             
P   6.77                                                                        
From 424 observations 2008 Dec. 1-2021 Oct. 14, mean residual 0".6.             

* Magnitudes Graph

        H = 18.0  G = 0.15                        [   ,-85]  (             - 2022 May  19)
        m1 = 12.5 + 5 log d + 25.0 log r(t - 35)  [-85,192]  (2022 May  19 - 2023 Feb. 20)
        H = 18.0  G = 0.15                        [192,-85]  (2023 Feb. 20 -             )

---------------------------------------------------------------------

The orbital elements are published on M.P.E.C. 2021-U31.
The magnitudes graphs are made with Comet for Windows.

---------------------------------------------------------------------

Copyright(C) Seiichi Yoshida (comet@aerith.net). All rights reserved.